Погода в Борисове

Погода в Борисове : погода сейчас, прогноз погоды и архив. Всё, что Вы хотите узнать о погоде в Борисове!

Хотите узнать прогноз погоды в Борисове? Тогда Вам сюда: Погода в Борисове

Поиск расширенной информации на нашем сайте:

Другие новости

Новости СМИ2

Главная страница сайта

Новости сайта

03.07.2017

Напоминаем, что на нашем специализированном сайте Метеоцентр.Азия вы можете получить высокодетализированные автоматические прогнозы погоды по пунктам России, СНГ и мира в авиационном формате (включающие направление и скорость ветра, видимость, явления погоды, количество и форму облачности, нижнюю и верхнюю границу облачности).


Погода в Борисове - сегодня

Время (UTC), дата Ветер
(°,м/с) 
Видим.   Явления Облачность Т
(°С)
Тd
(°С)
f(%) Тe
(°С)
Pmin
(гПа)
dP
(гПа)
Po
(мм)
O2
(г/м3)
Тmin Tmax R s Состояние
почвы
12 19.07.17 220 (ЮЗ) 35000 м    8/8 300 м 
[Cu med, cong]
+19.2 +11.3 60 +23  1018.7  -0.5  748  279           
15 19.07.17 220 (ЮЗ) 35000 м    6/6 600 м 
[Sc]
+20.7 +10.1 51 +22  1017.1  -1.4  746  278           
18 19.07.17 тихо ()   35000 м    1/1 1000 м 
[Sc]
+17.4 +11.1 66 +20  1017.1  -0.3  746  281    +21.3       
21 19.07.17 тихо ()   20000 м    9/9 1000 м 
[Sc]
+15 +11.6 80 +18  1017  -0.3  746  283           
00 20.07.17 тихо ()   18000 м    3/3 1000 м 
[Sc]
+12.6 +11.3 92 +16  1016.7  -0.5  746  285           
06 20.07.17 тихо ()   18000 м    6/3 1000 м средняя, верхняя 
[Sc|Ac trans|Ci]
+18.6 +13.1 70 +24  1014.7  -0.6  745  278  +11.1         
09 20.07.17 170 (Ю) 23000 м    8/8 600 м 
[Cu Sc]
+22.6 +12.2 52 +27  1013.2  -1.1  744  274           
12 20.07.17 030 (СВ) 2{12}  35000 м  в посл. час ливневой дождь{гроза}  8/8 540 м кучево-дожд. 
[Cb calv]
+16 +14.7 92 +25  1013  -0.7  743  280      10     
18 20.07.17 тихо ()   26000 м  {ливн. осадки}  6/6 600 м 
[Sc]
+17.1 +15.4 90 +27  1011.9  -1  742  278    +23.6  12     
21 20.07.17 тихо ()   5000 м  дымка  8/8 1000 м 
[Sc]
+15 +14.1 94 +22  1012.5  0.4  743  281           
00 21.07.17 тихо ()   10 км    ясно 
+13.1 +12.7 97 +18  1012.6  -0.1  743  283           
03 21.07.17 тихо ()   3400 м  дымка  3/3 1000 м 
[Sc]
+11.7 +11.4 98 +15  1013.3  0.6  743  285           
06 21.07.17 030 (СВ) 35000 м    5/0 верхняя 
[Ci sp]
+16.9 +13.4 80 +23  1013.7  0.8  744  280  +11.5         
09 21.07.17 030 (СВ) 35000 м    9/8 600 м верхняя 
[Cu med, cong|Ci fib]
+21 +12.6 59 +26  1014.1  0.8  744  276           
12 21.07.17 010 (С) 35000 м    8/6 600 м верхняя 
[Sc|Ci fib]
+22.4 +12.1 52 +27  1013.9  -0.1  744  275           
15 21.07.17 010 (С) 35000 м    9/3 1000 м средняя 
[Sc|Ac lent]
+21.8 +11.1 51 +25  1013.7  -0.3  744  276           
18 21.07.17 030 (СВ) 35000 м    9/9 1000 м 
[Sc]
+18.4 +11.4 64 +23  1014.3  0.3  744  279    +23.3       
21 21.07.17 030 (СВ) 35000 м    10/10 1000 м 
[Sc]
+16.7 +11.7 72 +22  1014.5  0.1  744  280           
00 22.07.17 040 (СВ) 35000 м    10/10 1440 м 
[Sc]
+15.6 +10.5 72 +18  1014.3  -0.3  744  282           
06 22.07.17 030 (СВ) 35000 м    4/1 1000 м средняя 
[Sc|Ac As]
+18.1 +10.8 62 +21  1014.8  745  279  +14.8    0.0     
09 22.07.17 030 (СВ) 27000 м    3/1 1000 м средняя 
[Sc|Ac As]
+21.2 +9.6 47 +22  1015.2  0.7  745  277           
12 22.07.17 040 (СВ) 35000 м    4/4 600 м 
[Cu hum]
+22.4 +8.9 42 +22  1015.7  0.5  746  276           
15 22.07.17 тихо ()   35000 м    3/3 600 м 
[Cu hum]
+22.9 +9.4 42 +23  1015.7  0.1  746  276           
18 22.07.17 тихо ()   30000 м    3/0 верхняя 
[Ci fib]
+18.5 +9.3 55 +19  1016.5  0.4  746  280    +23.3       
21 22.07.17 тихо ()   30000 м    ясно 
+13.3 +9.9 80 +14  1017.7  0.7  746  285           
Время (UTC), дата Ветер
(°,м/с) 
Видим.   Явления Облачность Т
(°С)
Тd
(°С)
f(%) Тe
(°С)
Pmin
(гПа)
dP
(гПа)
Po
(мм)
O2
(г/м3)
Тmin Tmax R s Состояние
почвы

Для получения пояснительной информации подведите курсор к названию столбца.

ПОГОДА в Борисове - архив

Всё, что Вы хотите узнать о погоде в Борисове - удобно и подробно!

Выберите нужную дату (начиная с 1 января 2015* года) и нажмите кнопку "Найти".
Будут отображены архивные сводки погоды по пункту Борисов, начиная с указанной даты.


Отображать данные в формате CSV (для использования в таблицах Excel)


Внимание! Наш архив погоды предназначен исключительно для личного некоммерческого использования в познавательных целях. Если Вам необходимы официальные справки о состоянии погоды (для производственных, юридических, коммерческих и т.п. целей), обращайтесь в органы Росгидромета.

*Примечание: данная дата относится к архиву по метеостанциям СССР (Россия, СНГ, Балтия).
Архив по метеостанциям Зарубежной Европы и Азии (кроме Китая) хранится 10 дней, по другим регионам земного шара (Китай, Африка, Америка, Австралия, Океания) - 1 день.

Борисов - район местоположения метеостанции


Название, широта, долгота, высота метеостанции:
Борисов 54.3°ш. 28.5°д. 189 м над ур. моря [Беларусь]

Дополнительная информация

В oтличие oт бoльшинства пoгoдных сайтoв мы публикуем пoдрoбную метеoинфoрмацию в детальнoм прoфессиoнальнoм фoрмате.

Характеристики температуры и влажнoсти вoздуха измеряются на высoте 2 м в тени вдали oт зданий и деревьев.
Скoрoсть ветра измеряется на высoте 10 м (на урoвне рoста челoвека скoрoсть ветра ниже в 1.5-2 раза). Если метеoстанция нахoдится в гoрoде или в лесу, тo скoрoсть ветра занижена на 2-4 м/с пo сравнению с oткрытым местoм. Скoрoсть ветра над акватoриями крупных рек и oзёр, а также на вершинах хoлмoв на 2-5 м/с выше, чем в oбычных услoвиях.
Атмoсфернoе давление в разных тoчках местнoсти мoжет значительнo oтличаться oт давления на метеoстанции, в зависимoсти oт услoвий рельефа (при пoдъёме на 10 м давление пoнижается примернo на 1 мм рт.ст.).